MCA2361 KGEG-KPDX

Flight info

Callsign MCA2361
Flight time 0h 45m
Altitude 24000
Route ZEGRO JORAD HHOOD6
Aircraft B738/M-SDE3GHIRWX/LB1

Departure

Time 2026-04-20 02:50
Airport Spokane International Airport (KGEG)

Arrival

Time 2026-04-20 03:36
Airport Portland International Airport (KPDX)
Time Latitude Longitude Altitude Speed Heading
2026-04-20 02:27 47.62526 -117.53411 2374 ft 0 kts 316°
2026-04-20 02:38 47.62519 -117.53401 2376 ft 4 kts 318°
2026-04-20 02:38 47.62498 -117.53376 2377 ft 4 kts 332°
2026-04-20 02:39 47.62475 -117.53367 2374 ft 4 kts 13°
2026-04-20 02:39 47.62455 -117.53382 2379 ft 1 kts 45°
2026-04-20 02:39 47.62452 -117.53387 2380 ft 0 kts 45°
2026-04-20 02:44 47.62453 -117.53386 2380 ft 2 kts 45°
2026-04-20 02:45 47.62490 -117.53329 2380 ft 13 kts 45°
2026-04-20 02:45 47.62497 -117.53212 2374 ft 12 kts 94°
2026-04-20 02:45 47.62536 -117.53115 2379 ft 11 kts 49°
2026-04-20 02:45 47.62592 -117.53033 2374 ft 11 kts 45°
2026-04-20 02:46 47.62644 -117.52953 2374 ft 11 kts 46°
2026-04-20 02:46 47.62694 -117.52870 2374 ft 10 kts 50°
2026-04-20 02:46 47.62746 -117.52798 2374 ft 10 kts 43°
2026-04-20 02:46 47.62805 -117.52710 2374 ft 16 kts 46°
2026-04-20 02:47 47.62904 -117.52561 2374 ft 24 kts 45°
2026-04-20 02:47 47.63030 -117.52371 2378 ft 23 kts 45°
2026-04-20 02:47 47.63145 -117.52198 2377 ft 21 kts 45°
2026-04-20 02:47 47.63201 -117.52115 2378 ft 9 kts 45°
2026-04-20 02:48 47.63230 -117.52020 2374 ft 11 kts 107°
2026-04-20 02:48 47.63188 -117.51946 2374 ft 0 kts 135°
2026-04-20 02:48 47.63183 -117.51940 2374 ft 5 kts 135°
2026-04-20 02:49 47.63116 -117.51867 2374 ft 16 kts 176°
2026-04-20 02:49 47.63030 -117.51963 2376 ft 18 kts 225°
2026-04-20 02:49 47.62884 -117.52186 2376 ft 58 kts 225°
2026-04-20 02:49 47.62441 -117.52853 2375 ft 118 kts 225°
2026-04-20 02:50 47.61744 -117.53901 2378 ft 170 kts 226°
2026-04-20 02:50 47.60823 -117.55232 2774 ft 190 kts 223°
2026-04-20 02:50 47.59838 -117.56542 3658 ft 190 kts 223°
2026-04-20 02:50 47.58925 -117.57974 4479 ft 191 kts 230°
2026-04-20 02:51 47.58115 -117.59482 5397 ft 184 kts 231°
2026-04-20 02:51 47.57339 -117.60905 6109 ft 190 kts 229°
2026-04-20 02:51 47.56440 -117.62530 6352 ft 216 kts 230°
2026-04-20 02:51 47.55435 -117.64345 6541 ft 240 kts 230°
2026-04-20 02:52 47.54322 -117.66321 6778 ft 262 kts 230°
2026-04-20 02:52 47.53103 -117.68448 7279 ft 276 kts 230°
2026-04-20 02:52 47.51844 -117.70618 8133 ft 277 kts 230°
2026-04-20 02:52 47.50580 -117.72777 9025 ft 279 kts 230°
2026-04-20 02:53 47.49318 -117.74921 9858 ft 281 kts 230°
2026-04-20 02:53 47.48001 -117.77148 10497 ft 292 kts 230°
2026-04-20 02:53 47.46604 -117.79507 10680 ft 317 kts 230°
2026-04-20 02:53 47.45097 -117.82048 10862 ft 340 kts 230°
2026-04-20 02:54 47.43490 -117.84755 11092 ft 359 kts 229°
2026-04-20 02:54 47.41823 -117.87558 11665 ft 366 kts 229°
2026-04-20 02:54 47.40140 -117.90383 12419 ft 367 kts 229°
2026-04-20 02:54 47.38453 -117.93214 13186 ft 369 kts 229°
2026-04-20 02:55 47.36752 -117.96066 13895 ft 371 kts 229°
2026-04-20 02:55 47.35037 -117.98938 14522 ft 374 kts 229°
2026-04-20 02:55 47.33312 -118.01825 15148 ft 377 kts 229°
2026-04-20 02:55 47.31568 -118.04742 15789 ft 380 kts 229°
2026-04-20 02:56 47.29814 -118.07671 16410 ft 383 kts 229°
2026-04-20 02:56 47.28046 -118.10622 17012 ft 386 kts 229°
2026-04-20 02:56 47.26257 -118.13602 17612 ft 389 kts 228°
2026-04-20 02:56 47.24457 -118.16600 18205 ft 392 kts 228°
2026-04-20 02:57 47.22641 -118.19620 18705 ft 396 kts 228°
2026-04-20 02:57 47.20810 -118.22662 19213 ft 398 kts 228°
2026-04-20 02:57 47.18967 -118.25720 19707 ft 401 kts 228°
2026-04-20 02:57 47.17108 -118.28801 20197 ft 404 kts 228°
2026-04-20 02:58 47.15235 -118.31903 20670 ft 407 kts 228°
2026-04-20 02:58 47.13350 -118.35020 21146 ft 410 kts 228°
2026-04-20 02:58 47.11446 -118.38164 21599 ft 413 kts 228°
2026-04-20 02:58 47.09534 -118.41320 22048 ft 415 kts 228°
2026-04-20 02:59 47.07608 -118.44494 22489 ft 418 kts 227°
2026-04-20 02:59 47.05666 -118.47690 22924 ft 421 kts 227°
2026-04-20 02:59 47.03704 -118.50916 23242 ft 426 kts 227°
2026-04-20 02:59 47.01720 -118.54173 23520 ft 431 kts 227°
2026-04-20 03:00 46.99797 -118.57327 23817 ft 433 kts 227°
2026-04-20 03:00 46.97783 -118.60627 23902 ft 437 kts 227°
2026-04-20 03:00 46.95746 -118.63959 23909 ft 440 kts 227°
2026-04-20 03:00 46.93700 -118.67304 23908 ft 440 kts 227°
2026-04-20 03:01 46.91665 -118.70625 23905 ft 439 kts 227°
2026-04-20 03:01 46.89629 -118.73945 23908 ft 438 kts 227°
2026-04-20 03:01 46.87589 -118.77266 23913 ft 438 kts 227°
2026-04-20 03:01 46.85552 -118.80579 23902 ft 439 kts 227°
2026-04-20 03:02 46.83512 -118.83892 23906 ft 439 kts 227°
2026-04-20 03:02 46.81470 -118.87204 23898 ft 439 kts 227°
2026-04-20 03:02 46.79429 -118.90511 23901 ft 439 kts 227°
2026-04-20 03:02 46.77387 -118.93815 23901 ft 439 kts 227°
2026-04-20 03:03 46.75347 -118.97112 23899 ft 439 kts 227°
2026-04-20 03:03 46.73299 -119.00419 23903 ft 439 kts 227°
2026-04-20 03:03 46.71250 -119.03722 23903 ft 439 kts 227°
2026-04-20 03:03 46.69200 -119.07022 23900 ft 439 kts 227°
2026-04-20 03:04 46.67151 -119.10318 23897 ft 440 kts 227°
2026-04-20 03:04 46.65098 -119.13616 23894 ft 440 kts 227°
2026-04-20 03:04 46.63041 -119.16916 23890 ft 440 kts 227°
2026-04-20 03:04 46.60987 -119.20207 23889 ft 440 kts 227°
2026-04-20 03:05 46.58930 -119.23499 23887 ft 440 kts 227°
2026-04-20 03:05 46.56872 -119.26788 23889 ft 440 kts 227°
2026-04-20 03:05 46.54812 -119.30078 23885 ft 440 kts 227°
2026-04-20 03:05 46.52751 -119.33364 23880 ft 440 kts 227°
2026-04-20 03:06 46.50690 -119.36647 23883 ft 440 kts 227°
2026-04-20 03:06 46.48626 -119.39931 23881 ft 440 kts 227°
2026-04-20 03:06 46.46557 -119.43217 23884 ft 440 kts 227°
2026-04-20 03:06 46.44492 -119.46494 23881 ft 440 kts 227°
2026-04-20 03:07 46.42424 -119.49772 23879 ft 441 kts 227°
2026-04-20 03:07 46.40355 -119.53047 23881 ft 441 kts 227°
2026-04-20 03:07 46.38282 -119.56325 23880 ft 441 kts 227°
2026-04-20 03:07 46.36212 -119.59593 23890 ft 441 kts 227°
2026-04-20 03:08 46.34136 -119.62869 23883 ft 441 kts 227°
2026-04-20 03:08 46.32060 -119.66138 23882 ft 442 kts 227°
2026-04-20 03:08 46.29981 -119.69411 23885 ft 442 kts 227°
2026-04-20 03:08 46.27898 -119.72685 23886 ft 442 kts 227°
2026-04-20 03:09 46.25813 -119.75957 23889 ft 442 kts 227°
2026-04-20 03:09 46.23727 -119.79227 23888 ft 443 kts 227°
2026-04-20 03:09 46.21641 -119.82494 23891 ft 443 kts 227°
2026-04-20 03:09 46.19552 -119.85762 23894 ft 443 kts 227°
2026-04-20 03:10 46.17463 -119.89025 23893 ft 443 kts 227°
2026-04-20 03:10 46.15375 -119.92283 23897 ft 442 kts 227°
2026-04-20 03:10 46.13286 -119.95539 23903 ft 442 kts 227°
2026-04-20 03:10 46.11195 -119.98793 23904 ft 442 kts 227°
2026-04-20 03:11 46.09108 -120.02038 23898 ft 442 kts 227°
2026-04-20 03:11 46.07017 -120.05286 23904 ft 442 kts 227°
2026-04-20 03:11 46.04927 -120.08526 23900 ft 442 kts 227°
2026-04-20 03:11 46.02838 -120.11763 23897 ft 441 kts 226°
2026-04-20 03:12 46.00823 -120.14881 23900 ft 441 kts 226°
2026-04-20 03:12 45.98736 -120.18107 23902 ft 441 kts 226°
2026-04-20 03:12 45.96645 -120.21335 23903 ft 441 kts 226°
2026-04-20 03:12 45.94559 -120.24552 23902 ft 440 kts 226°
2026-04-20 03:13 45.92473 -120.27765 23904 ft 440 kts 226°
2026-04-20 03:13 45.90378 -120.30988 23902 ft 440 kts 226°
2026-04-20 03:13 45.88292 -120.34193 23902 ft 440 kts 226°
2026-04-20 03:13 45.86203 -120.37399 23900 ft 439 kts 226°
2026-04-20 03:14 45.84119 -120.40595 23900 ft 437 kts 226°
2026-04-20 03:14 45.82069 -120.43737 23897 ft 426 kts 226°
2026-04-20 03:14 45.80051 -120.46823 23900 ft 423 kts 226°
2026-04-20 03:14 45.78039 -120.49902 23902 ft 424 kts 227°
2026-04-20 03:15 45.76329 -120.53334 23868 ft 422 kts 242°
2026-04-20 03:15 45.75309 -120.57253 23315 ft 422 kts 252°
2026-04-20 03:15 45.74553 -120.61313 22749 ft 423 kts 253°
2026-04-20 03:15 45.73819 -120.65375 22204 ft 420 kts 253°
2026-04-20 03:16 45.73084 -120.69405 21693 ft 417 kts 253°
2026-04-20 03:16 45.72338 -120.73396 21199 ft 414 kts 253°
2026-04-20 03:16 45.71582 -120.77363 20707 ft 412 kts 252°
2026-04-20 03:16 45.70820 -120.81306 20224 ft 410 kts 252°
2026-04-20 03:17 45.70057 -120.85231 19742 ft 409 kts 252°
2026-04-20 03:17 45.69296 -120.89130 19254 ft 406 kts 252°
2026-04-20 03:17 45.68537 -120.93011 18783 ft 404 kts 252°
2026-04-20 03:17 45.67781 -120.96866 18324 ft 404 kts 252°
2026-04-20 03:18 45.67031 -121.00700 17774 ft 395 kts 253°
2026-04-20 03:18 45.66295 -121.04499 17326 ft 400 kts 252°
2026-04-20 03:18 45.65528 -121.08373 16897 ft 410 kts 252°
2026-04-20 03:18 45.64748 -121.12305 16389 ft 405 kts 252°
2026-04-20 03:19 45.64004 -121.16099 15913 ft 386 kts 252°
2026-04-20 03:19 45.63295 -121.19717 15455 ft 370 kts 251°
2026-04-20 03:19 45.62614 -121.23188 15022 ft 356 kts 251°
2026-04-20 03:19 45.61953 -121.26539 14612 ft 344 kts 251°
2026-04-20 03:20 45.61311 -121.29786 14219 ft 336 kts 250°
2026-04-20 03:20 45.60681 -121.32970 13815 ft 331 kts 250°
2026-04-20 03:20 45.60050 -121.36144 13403 ft 332 kts 250°
2026-04-20 03:20 45.59418 -121.39313 12981 ft 332 kts 250°
2026-04-20 03:21 45.59001 -121.41402 12783 ft 329 kts 250°
2026-04-20 03:21 45.58388 -121.44470 12471 ft 325 kts 250°
2026-04-20 03:21 45.57773 -121.47546 12155 ft 321 kts 250°
2026-04-20 03:21 45.57159 -121.50607 11858 ft 320 kts 250°
2026-04-20 03:22 45.56546 -121.53654 11575 ft 320 kts 250°
2026-04-20 03:22 45.55933 -121.56703 11274 ft 320 kts 250°
2026-04-20 03:22 45.55318 -121.59760 10973 ft 319 kts 250°
2026-04-20 03:22 45.54710 -121.62784 10676 ft 315 kts 250°
2026-04-20 03:23 45.54107 -121.65773 10385 ft 312 kts 250°
2026-04-20 03:23 45.53518 -121.68690 10086 ft 301 kts 250°
2026-04-20 03:23 45.52994 -121.71507 9964 ft 286 kts 258°
2026-04-20 03:23 45.52975 -121.74356 9591 ft 289 kts 272°
2026-04-20 03:24 45.53132 -121.77169 9378 ft 276 kts 271°
2026-04-20 03:24 45.53269 -121.79801 9229 ft 256 kts 271°
2026-04-20 03:24 45.53387 -121.82252 9125 ft 240 kts 271°
2026-04-20 03:24 45.53491 -121.84587 8738 ft 241 kts 271°
2026-04-20 03:25 45.53591 -121.86972 8398 ft 238 kts 271°
2026-04-20 03:25 45.53686 -121.89300 8122 ft 231 kts 271°
2026-04-20 03:25 45.53779 -121.91550 7885 ft 224 kts 271°
2026-04-20 03:25 45.53868 -121.93736 7673 ft 219 kts 271°
2026-04-20 03:26 45.53956 -121.95910 7485 ft 221 kts 271°
2026-04-20 03:26 45.54043 -121.98101 7267 ft 221 kts 272°
2026-04-20 03:26 45.54130 -122.00308 7070 ft 224 kts 272°
2026-04-20 03:26 45.54218 -122.02537 6864 ft 226 kts 272°
2026-04-20 03:27 45.53920 -122.04715 6669 ft 224 kts 239°
2026-04-20 03:27 45.53062 -122.06517 6569 ft 219 kts 233°
2026-04-20 03:27 45.52171 -122.08287 6423 ft 220 kts 233°
2026-04-20 03:27 45.51278 -122.10067 6281 ft 220 kts 233°
2026-04-20 03:28 45.50393 -122.11837 6150 ft 219 kts 233°
2026-04-20 03:28 45.49511 -122.13602 6014 ft 219 kts 233°
2026-04-20 03:28 45.47753 -122.17119 5756 ft 217 kts 235°
2026-04-20 03:29 45.47226 -122.19112 5521 ft 218 kts 269°
2026-04-20 03:29 45.47230 -122.21275 5310 ft 221 kts 271°
2026-04-20 03:29 45.47223 -122.23472 5040 ft 221 kts 271°
2026-04-20 03:29 45.47211 -122.25640 4762 ft 218 kts 271°
2026-04-20 03:30 45.47200 -122.27637 4533 ft 213 kts 270°
2026-04-20 03:30 45.47221 -122.29708 4309 ft 202 kts 281°
2026-04-20 03:30 45.47723 -122.31492 4137 ft 190 kts 300°
2026-04-20 03:30 45.48327 -122.33147 3894 ft 186 kts 299°
2026-04-20 03:31 45.48925 -122.34759 3651 ft 182 kts 300°
2026-04-20 03:31 45.49526 -122.36339 3426 ft 181 kts 300°
2026-04-20 03:31 45.50118 -122.37880 3189 ft 174 kts 300°
2026-04-20 03:31 45.50705 -122.39400 2958 ft 176 kts 300°
2026-04-20 03:32 45.51283 -122.40900 2727 ft 168 kts 300°
2026-04-20 03:32 45.51836 -122.42332 2496 ft 161 kts 299°
2026-04-20 03:32 45.52373 -122.43731 2282 ft 161 kts 299°
2026-04-20 03:32 45.52901 -122.45123 2016 ft 159 kts 300°
2026-04-20 03:33 45.53423 -122.46516 1842 ft 157 kts 300°
2026-04-20 03:33 45.53953 -122.47878 1662 ft 158 kts 301°
2026-04-20 03:33 45.54482 -122.49252 1489 ft 158 kts 300°
2026-04-20 03:33 45.55010 -122.50635 1307 ft 155 kts 301°
2026-04-20 03:34 45.55493 -122.51847 1093 ft 147 kts 301°
2026-04-20 03:34 45.55986 -122.53107 907 ft 145 kts 301°
2026-04-20 03:34 45.56488 -122.54396 704 ft 152 kts 301°
2026-04-20 03:34 45.57016 -122.55742 510 ft 158 kts 301°
2026-04-20 03:35 45.57557 -122.57130 293 ft 160 kts 301°
2026-04-20 03:35 45.58089 -122.58487 67 ft 154 kts 302°
2026-04-20 03:35 45.58580 -122.59731 29 ft 125 kts 298°
2026-04-20 03:35 45.58929 -122.60636 26 ft 83 kts 299°
2026-04-20 03:36 45.59137 -122.61172 27 ft 41 kts 299°
2026-04-20 03:36 45.59227 -122.61330 31 ft 10 kts 333°
2026-04-20 03:36 45.59301 -122.61319 26 ft 0 kts 25°
2026-04-20 03:37 45.59331 -122.61288 27 ft 13 kts 53°
2026-04-20 03:37 45.59303 -122.61113 27 ft 21 kts 118°
2026-04-20 03:37 45.59232 -122.60932 27 ft 21 kts 118°
2026-04-20 03:38 45.59170 -122.60771 27 ft 17 kts 119°
2026-04-20 03:38 45.59116 -122.60637 27 ft 10 kts 124°
2026-04-20 03:38 45.59078 -122.60575 27 ft 9 kts 133°
2026-04-20 03:38 45.59027 -122.60503 27 ft 12 kts 136°
2026-04-20 03:39 45.58958 -122.60392 27 ft 17 kts 117°
2026-04-20 03:39 45.58932 -122.60236 27 ft 11 kts 58°
2026-04-20 03:39 45.58945 -122.60145 27 ft 2 kts 113°
2026-04-20 03:39 45.58941 -122.60134 27 ft 2 kts 119°
2026-04-20 03:40 45.58919 -122.60073 27 ft 3 kts 117°
2026-04-20 03:40 45.58913 -122.60058 27 ft 4 kts 120°
2026-04-20 03:40 45.58909 -122.60048 27 ft 5 kts 118°
2026-04-20 03:40 45.58882 -122.59971 27 ft 3 kts 91°
2026-04-20 03:41 45.58900 -122.59946 27 ft 4 kts 37°
2026-04-20 03:41 45.58923 -122.59918 27 ft 3 kts 40°
2026-04-20 03:41 45.58935 -122.59904 27 ft 2 kts 41°
2026-04-20 03:41 45.58939 -122.59899 27 ft 0 kts 41°